User: anonymous   Login
Location: Unspecified
(40.9908°N, 0.0000°E)
Time: 14:21:07
(UTC+00:00)
Language:

N. Korean satellite - Orbit

View from above orbital plane
View from above orbital plane
View from above satellite
View from above satellite

Ground track
Ground track

The orbit data is extracted from the following two-line orbital elements,

1 39026U 12072A   19176.73734946  .00000949  00000-0  36789-4 0  9998
2 39026  97.2104 179.6568 0039923  76.9075 283.6616 15.27816990362671
Epoch (UTC): 25 June 2019 17:41:46
Eccentricity: 0.0039923
inclination: 97.2104°
perigee height: 455 km
apogee height: 510 km
right ascension of ascending node: 179.6568°
argument of perigee: 76.9075°
revolutions per day: 15.27816990
mean anomaly at epoch: 283.6616°
orbit number at epoch: 36267

The dashed part of the orbit path shows where the satellite is in the earth's shadow,  

DLR